Status Flugplatz

Der Flugplatz ist offen
PPR Regelung ! PJE !!!

123.15 MHz
RWY 05/23

flüger beizli - Öffnungszeiten
Freitag ab 16:00
Samstag +Sonntag ab 11:00
Bei schönem Wetter öffnen wir früher! Tel.: 079 234 07 74

Herzlich willkommen auf der Homepage des Flugplatz Biel-Kappelen

Wir freuen uns über Ihren Besuch auf unserem schönen Flugplatz im Berner Seeland. Ob zu Fuss, per Velo, Motorrad, Auto oder Flugzeug Sie sind uns jederzeit herzlich willkommen. 


 

Wetter Kappelen

 


 

[source: ADDS]
METAR
LSZG 171450Z AUTO 20004KT 160V280 9999 NCD 28/16 Q1019 =
TAF
TAF LSZG 171425Z 1715/1724 22005KT 9999 FEW045 PROB30 TEMPO 1715/1717 FEW050TCU BECMG 1719/1721 CAVOK =
SR / SS: 04:32 / 18:39 UTC ( 2017-08-17)

 


 

Besucherzähler

HeuteHeute67
Seit BeginnSeit Beginn94892
Guests 1

Flugplatz Biel-Kappelen LSZP - 123.15MHz - 032 384 46 84

Email: Diese E-Mail-Adresse ist vor Spambots geschützt! Zur Anzeige muss JavaScript eingeschaltet sein!
www.lszp.ch
2017 © by mb

Zum Anfang